TITAN 3C TRANSTAGE R/B, 3432

Orbit data source: Space-Track

TITAN 3C TRANSTAGE R/B, 3432 is space debris in GEO originally from a launch on Thu, 26 Sep 1968 UTC launched from the Air Force Eastern Test Range (AFETR). Debris objects in space refer to the collection of defunct objects orbiting the Earth. Examples of debris include non-operational satellites, rocket bodies, and fragments generated from explosions, collisions, or faulty payload assembly.

Loading next visibility...
Identifier
3432, 1968-081E
Orbit
GEO
Country
Flag of USUS
Related business
Manufacturer
Martin Marietta
Mission
Spacecraft
Bus & Motor
TRANSTAGE, Unknown motor
Mass
~1,950 kg wet, ~1,950 kg dry
Launch date (UTC)
1968-09-26 (58 years ago)
Launch vehicle
Unknown
Launch site
Air Force Eastern Test Range (AFETR)
Object type
Payload
Rocket body
Debris
Shape & HBR
CYL + 2 NOZZLE, 1.1 m
Radar Cross Section
Large (>1 m²)

Expand to show TLE details & history
Last TLE update: 7 hours ago

TLE from 7 hours ago
0 TITAN 3C TRANSTAGE R/B
1 03432U 68081E   26258.20882537 -.00000099  00000-0  00000-0 0  9992
2 03432   2.1501  52.4931 0092580 276.6126  59.9335  1.01516763122897
Epoch: 2026-09-15T05:00Z
TLE epoch observation values (Epoch: 2026-09-15T05:00:42.511Z)
Latitude
-0.83663°
Longitude
-39.38673°
Altitude
35,247.643 km
Speed
3.102 km/s
True Right ascension
01h 59m 52s
True Declination
0° 50' 09"
Sunlit
Object was in daylight at epoch
Visualization orbit readout
Latitude
Unknown
Longitude
Unknown
Altitude
Unknown
Speed
Unknown
Apparent Right ascension
Unknown
Apparent Declination
Unknown
Sunlit
N/A
Visualization observer readout
Local Sidereal Time
04:10:32
Azimuth
Unknown
Elevation
Unknown
Doppler factor
Unknown
Orbital elements
Apogee altitude
35,829.404 km
Perigee altitude
35,055.058 km
Semi-major axis
41,820.368 km
Eccentricity
0.00926
Inclination
2.1501°
RAAN
52.4931°
Arg. of periapsis
276.6126°
True anomaly
60.85695°
Mean anomaly
59.9335°
Eccentric anomaly
60.39469°
Mean motion
0.25378 °/min
Orbital period
1,418.54 mins
BSTAR
0
Loading maneuver chart data...
Computing Atmospheric mass density...

Documentation

Showing up to 5 results
|